CAPE
0 0 0 0 0 0 32 0 0 0 12 199 14 169 62 121 214 851 1294 264 85 469 743 728 1120 1514 1673 1883 2051 2152 2355 2479 2467 2453 2483 2470 2374 2292 2235 2185 2152 2178 1911 1848 1777 1661 1686 1864 1930
0 0 0 0 0 12 9 0 0 0 152 463 151 284 172 517 1030 1289 1214 289 89 782 1188 300 999 1428 1555 1816 2038 2213 2471 2497 2476 2495 2457 2405 2323 2214 2201 2183 2122 2093 1814 1864 1763 1557 1545 1706 1839
0 0 0 0 0 21 7 0 0 125 385 212 245 559 605 1448 1702 1493 926 264 129 782 1345 922 986 1253 1438 1656 1956 2183 2314 2272 2293 2325 2426 2395 2256 2024 1958 2156 2190 2090 1520 1695 1853 1631 1503 1552 1584
0 0 0 0 0 0 0 0 0 47 760 1006 688 876 1987 1987 2072 1432 497 14 125 734 1213 1172 899 1154 1364 1541 1831 2047 1946 1851 1934 2109 2300 2356 2252 2089 2117 2204 2422 1919 1510 1222 1432 1399 1178 1081 932
0 0 0 0 0 0 0 0 0 48 589 606 580 842 1394 2088 1824 1247 299 1 133 653 2026 1648 898 1104 1340 1488 1670 1683 1591 1588 1758 1954 2080 2214 2336 2371 2217 2292 2580 2431 2102 1415 945 739 629 627 596
0 0 0 0 0 0 0 0 0 176 73 369 607 652 2196 2105 2066 1375 294 79 277 745 1592 2079 1064 1199 1275 1357 1349 1191 1227 1423 1635 1802 2001 2241 2239 2045 2045 2344 2592 2488 2106 1715 1358 1038 852 722 696
0 0 0 0 0 0 0 0 0 0 0 0 270 426 1464 460 1199 1511 485 253 565 1037 1621 2010 1440 1316 1091 1139 1073 966 1027 1231 1431 1584 1803 2085 1971 1845 2063 2279 2406 2419 2180 1727 1494 1319 1148 946 863
0 0 0 0 0 0 0 0 0 0 0 0 0 284 437 221 591 1660 890 383 547 1120 1743 2125 1844 1448 1430 1478 1015 941 956 1069 1281 1468 1604 1746 1685 1768 2048 2160 2138 2225 2132 1920 1626 1354 1326 1342 1382
0 0 0 0 0 0 0 0 0 0 0 0 0 0 28 13 278 976 1519 790 452 788 1321 2128 2202 1964 1721 1562 1423 928 1005 1065 1255 1485 1554 1664 1638 1875 2051 1832 1787 1943 1814 1844 1892 1723 1579 1513 1516
0 0 0 0 0 0 0 0 0 0 0 0 0 0 0 10 55 211 776 1246 781 540 686 1180 1638 1877 1932 1294 2004 1752 1689 1477 1462 1453 1839 1857 1784 2375 1754 1599 1658 1757 1707 1640 1557 1468 1264 1084 1197
0 0 0 0 0 0 0 0 0 0 0 0 0 0 0 0 1 23 85 255 1189 1008 595 866 1383 1577 1469 790 1732 1461 1664 1798 1971 1986 2131 1948 2338 2130 2100 2511 1731 1922 1463 1668 1239 1255 1304 1490 1712
0 0 0 0 0 0 0 0 0 0 0 0 0 0 0 0 0 0 1 97 422 1373 854 955 1318 1736 1776 1212 1524 1374 1394 1525 1972 2122 2400 2543 2488 2053 1952 2557 1819 2091 1403 1867 1870 2035 1926 1938 1422
0 0 0 0 0 0 0 0 0 0 0 0 0 0 0 0 0 0 0 12 378 1161 1289 1222 1262 1565 1648 1594 1607 1617 1542 1740 1958 2565 2105 1911 2301 2228 1716 1765 1772 1686 1925 906 713 554 1157 997 945
0 0 0 0 0 0 0 0 0 0 0 0 0 0 0 0 0 0 0 34 432 1038 1477 1472 1574 1371 1420 1598 1656 1856 1758 2175 1861 1420 1175 1249 1597 1445 1308 960 759 550 362 382 420 948 519 821 1128
0 0 0 0 0 0 0 0 0 0 0 0 0 0 0 0 0 0 2 182 373 972 1679 1952 1909 1564 1636 1363 1382 1373 1720 1252 864 861 1064 1075 829 538 285 4 171 182 233 208 377 511 452 416 709
0 0 0 0 0 0 0 0 0 0 0 0 0 0 0 0 0 0 0 0 243 704 1652 2489 1954 1958 1633 1309 1202 1114 926 795 644 777 476 384 139 78 14 6 56 165 331 248 414 417 215 703 786
0 0 0 0 0 0 0 0 0 0 0 0 0 0 0 0 0 0 1 23 0 74 1813 2684 2109 1754 1752 1416 1015 963 887 1051 570 385 349 275 139 5 0 0 51 127 172 193 100 201 527 219 127
0 0 0 0 0 0 0 0 0 0 0 0 0 0 0 0 0 0 207 711 57 6 2661 2235 1510 1703 2313 1800 1752 1632 1071 887 788 488 113 12 3 2 0 0 7 83 53 37 36 50 84 81 36
0 0 0 0 0 0 0 0 0 0 0 0 0 0 0 0 0 8 272 1023 1924 2377 2200 1557 1304 1871 2095 2100 1830 1661 1188 663 404 61 3 0 0 0 0 0 0 0 3 26 24 137 54 116 3
0 0 0 0 0 0 0 0 0 0 0 0 0 0 0 0 0 13 67 121 503 734 1044 1082 1319 1686 2180 2117 2204 1188 861 423 233 69 1 2 0 1 2 1 0 5 0 2 19 88 28 115 7
0 0 0 0 0 0 0 0 0 0 0 0 0 0 0 0 1 34 13 111 366 640 759 893 1107 1593 1992 1844 1337 915 500 325 247 132 2 3 0 0 0 2 2 3 4 8 2 0 0 8 85
0 0 0 0 0 0 0 0 0 0 0 0 0 0 0 0 3 73 90 89 203 328 500 817 962 1656 1631 1561 735 629 476 334 209 47 4 0 0 0 0 1 0 3 0 0 0 0 0 0 10
0 0 0 0 0 0 0 5 0 0 0 0 0 0 0 0 14 161 194 150 45 62 289 548 758 1047 1145 674 626 624 580 162 29 12 0 0 0 0 0 0 0 0 0 0 0 0 0 0 0
0 0 0 0 0 0 0 0 0 3 0 0 0 0 0 0 42 214 289 345 135 140 311 504 556 417 525 662 851 699 610 323 200 77 13 6 2 0 0 0 0 0 0 0 0 0 0 0 0
0 0 0 0 0 0 0 0 0 0 0 0 0 0 0 0 28 115 300 449 438 282 342 377 556 640 665 636 629 563 337 81 26 1 3 4 4 6 4 0 0 0 0 0 0 1 2 2 0
0 0 0 0 0 0 5 0 0 0 0 0 0 0 0 0 0 0 44 145 372 513 604 542 423 361 491 514 399 238 216 100 2 32 8 9 8 18 11 1 0 0 0 0 0 0 1 1 3
1 1 0 0 20 0 1 1 0 0 0 0 0 0 0 0 0 0 0 6 75 155 246 235 67 7 37 135 259 268 230 93 3 22 76 23 19 4 14 2 0 0 0 0 0 0 2 1 1
2 10 10 61 0 0 0 0 0 0 0 0 0 0 0 0 0 0 0 0 0 4 36 113 37 0 0 57 122 86 100 73 98 158 178 116 160 98 0 42 20 5 4 0 0 1 4 0 4
0 12 10 19 20 0 0 0 5 0 0 0 0 0 0 0 0 0 0 0 0 0 0 149 235 78 81 154 142 101 89 83 108 127 161 181 177 146 77 54 35 18 20 12 5 3 6 5 5
8 5 11 76 3 21 99 1 0 0 0 0 0 0 0 0 0 0 0 0 0 0 0 0 0 39 110 199 149 141 171 100 112 107 86 99 85 62 29 22 41 45 26 40 24 8 4 3 4
CIN
0 0 0 0 0 0 0 0 0 0 -35 -64 -123 -66 -101 -81 -76 -14 -108 -269 -299 -236 -340 -459 -402 -282 -202 -124 -81 -59 -45 -27 -21 -15 -7 -8 -12 -18 -10 -5 -4 -4 -19 -12 -10 -24 -27 -9 -3
0 0 0 0 0 0 0 0 0 0 -75 -45 -104 -43 -48 -50 -41 -59 -89 -344 -370 -207 -257 -463 -386 -258 -197 -117 -73 -48 -32 -24 -23 -17 -11 -11 -13 -16 -9 -4 -4 -4 -17 -18 -14 -25 -30 -27 -9
0 0 0 0 0 -4 -2 0 0 -94 -72 -53 -33 -40 -38 -27 -51 -59 -194 -349 -362 -237 -212 -276 -359 -254 -195 -137 -82 -52 -46 -47 -39 -31 -16 -12 -16 -21 -18 -2 -1 -2 -35 -22 -14 -19 -26 -34 -37
0 0 0 0 0 0 0 0 0 -85 -41 -30 -22 0 -25 -100 -56 -132 -256 -466 -323 -214 -189 -248 -375 -284 -215 -162 -93 -59 -73 -80 -70 -45 -22 -13 -13 -14 -5 -1 0 -5 -28 -53 -38 -47 -61 -74 -98
0 0 0 0 0 0 0 0 0 -72 -27 -29 -34 -2 -6 -73 -130 -169 -309 -97 -322 -225 -142 -228 -394 -311 -235 -170 -104 -82 -91 -94 -73 -54 -34 -18 -3 0 -1 -1 0 0 0 -39 -95 -132 -159 -149 -150
0 0 0 0 0 0 0 0 0 -74 -40 -57 -26 -17 -17 -66 -73 -160 -313 -396 -314 -256 -175 -183 -346 -289 -248 -201 -162 -148 -124 -89 -72 -54 -31 -8 -2 -3 -2 -1 0 -1 -2 -14 -44 -77 -111 -130 -146
0 0 0 0 0 0 0 0 0 0 0 0 -121 -33 -8 -194 -161 -154 -273 -358 -307 -257 -201 -191 -254 -248 -269 -226 -192 -176 -137 -102 -74 -60 -36 -11 -6 -7 -2 -1 -1 -2 -3 -6 -22 -38 -56 -81 -98
0 0 0 0 0 0 0 0 0 0 0 0 0 -46 -54 -146 -225 -147 -216 -291 -284 -254 -186 -154 -158 -182 -154 -120 -184 -173 -150 -112 -74 -51 -35 -18 -10 -4 -1 -2 -1 -1 -1 -2 -6 -22 -30 -29 -27
0 0 0 0 0 0 0 0 0 0 0 0 0 0 -307 -319 -256 -130 -101 -150 -228 -268 -213 -113 -89 -90 -92 -86 -98 -158 -116 -85 -51 -27 -19 -12 0 0 0 -4 -16 -5 -1 -1 -1 -2 -6 -14 -27
0 0 0 0 0 0 0 0 0 0 0 0 0 0 0 -212 -271 -199 -116 -69 -142 -241 -233 -162 -103 -74 -46 -61 -18 -7 -2 -8 -9 -6 0 0 0 -3 -8 -9 -23 -11 -2 -3 -7 -11 -23 -39 -5
0 0 0 0 0 0 0 0 0 0 0 0 0 0 0 0 -47 -289 -203 -143 -46 -94 -187 -150 -121 -86 -65 -60 -14 -10 0 0 0 0 0 0 -3 -4 -5 0 -1 0 -6 0 -20 -14 -8 -1 -14
0 0 0 0 0 0 0 0 0 0 0 0 0 0 0 0 0 0 -155 -174 -93 -18 -77 -109 -83 -45 -33 -18 -6 0 0 0 0 0 0 -1 -3 -1 -3 -2 -3 -1 -17 0 0 -4 -13 -11 -6
0 0 0 0 0 0 0 0 0 0 0 0 0 0 0 0 0 0 0 -173 -69 -13 -12 -44 -75 -57 -45 -15 -7 0 0 0 -1 -1 -2 -4 0 0 -1 -3 -7 -12 -9 -1 -1 -1 -16 -2 -2
0 0 0 0 0 0 0 0 0 0 0 0 0 0 0 0 0 0 0 -184 -73 -4 -1 -7 -66 -55 -59 -22 -21 -10 -1 -5 -4 0 -4 0 0 0 0 -8 -5 -4 -2 -2 -2 -5 -3 -2 -3
0 0 0 0 0 0 0 0 0 0 0 0 0 0 0 0 0 0 -201 -139 -81 -4 0 -6 -40 -55 -43 -64 -68 -30 -12 -41 -72 -21 -1 0 -7 -14 -42 -4 -3 -3 -2 -10 -5 -3 0 -5 0
0 0 0 0 0 0 0 0 0 0 0 0 0 0 0 0 0 0 0 0 -91 -6 -1 -17 -55 -39 -41 -80 -76 -56 -102 -86 -83 -37 -75 -33 -44 -23 -24 -61 -14 -9 -1 -4 -2 -2 -12 -8 -19
0 0 0 0 0 0 0 0 0 0 0 0 0 0 0 0 0 0 -126 -132 0 -128 -1 -20 -60 -30 -17 -62 -89 -73 -60 -19 -52 -79 -82 -82 -49 -28 0 0 -13 -17 -1 -10 -38 -30 -8 -3 -50
0 0 0 0 0 0 0 0 0 0 0 0 0 0 0 0 0 0 -189 -81 -150 -71 -4 -52 -60 -26 -1 -18 -10 -2 -16 -17 -27 -45 -120 -105 -106 -80 -1 0 -48 -6 -18 -44 -57 -52 -48 -35 -93
0 0 0 0 0 0 0 0 0 0 0 0 0 0 0 0 0 -126 -254 -117 -44 -36 -36 -72 -90 -32 -3 -1 -2 -3 -8 -42 -83 -154 -54 0 0 -1 0 0 0 0 -121 -103 -55 -1 -43 -2 -98
0 0 0 0 0 0 0 0 0 0 0 0 0 0 0 0 0 -353 -367 -359 -246 -201 -140 -131 -91 -47 -1 0 0 -2 -16 -70 -28 -34 -55 -36 0 -1 -159 -2 0 -2 0 -33 -73 -15 -30 -11 -4
0 0 0 0 0 0 0 0 0 0 0 0 0 0 0 0 -137 -287 -412 -353 -265 -199 -172 -142 -105 -38 -1 0 -3 -37 -48 -23 -7 -11 -42 -173 0 0 0 -1 0 -3 0 -2 -1 0 -2 -4 0
0 0 0 0 0 0 0 0 0 0 0 0 0 0 0 0 -166 -220 -288 -316 -291 -260 -208 -137 -107 -17 -2 0 -38 -14 -23 -12 -29 -156 -26 0 0 0 0 0 0 -1 0 0 0 0 0 0 -24
0 0 0 0 0 0 0 0 0 0 0 0 0 0 0 0 -158 -148 -206 -254 -338 -344 -251 -167 -101 -38 -12 -32 -31 -14 -6 -136 -236 -260 0 0 0 0 0 0 0 0 0 0 0 0 0 0 0
0 0 0 0 0 0 0 0 0 0 0 0 0 0 0 0 -160 -132 -150 -155 -258 -259 -203 -152 -114 -152 -69 -20 0 -1 -2 -22 -33 -86 0 0 0 0 0 0 0 0 0 0 0 0 0 0 0
0 0 0 0 0 0 0 0 0 0 0 0 0 0 0 0 -159 -118 -75 -63 -99 -166 -160 -150 -70 -25 -12 -9 -8 -5 -9 -46 -55 0 0 0 0 0 0 0 0 0 0 0 0 0 0 0 0
0 0 0 0 0 0 -2 0 0 0 0 0 0 0 0 0 0 -8 -132 -97 -59 -43 -25 -24 -21 -34 -10 -5 -7 -24 -27 -38 0 -49 0 -28 0 0 -1 0 0 0 0 0 0 0 0 0 0
0 0 0 0 -1 0 0 -1 0 0 0 0 0 0 0 0 0 0 0 -159 -112 -76 -50 -53 -136 -211 -133 -60 -22 -16 -27 -42 -25 -43 -20 -51 -72 -33 -133 -101 0 0 0 0 0 0 0 0 0
0 -1 0 0 0 0 0 0 0 0 0 0 0 0 0 0 0 0 0 0 -26 -123 -157 -80 -120 0 0 -72 -41 -54 -32 -30 -16 -7 -12 -23 -20 -53 0 -76 -71 -1 0 0 0 0 0 0 0
0 0 0 0 0 0 0 0 -1 -35 0 0 0 0 0 0 0 0 0 0 0 0 -49 -54 -37 -50 -46 -27 -22 -38 -32 -33 -37 -32 -28 -30 -32 -47 -94 -45 -25 -22 -13 0 0 0 0 0 0
0 0 0 -1 0 -17 -1 0 0 0 0 0 0 0 0 0 0 0 0 0 0 0 0 0 -5 -58 -10 0 -21 -41 -27 -46 -44 -48 -70 -68 -93 -106 -49 -40 -34 -25 -32 -27 -46 0 0 0 0
Wind_Speed
nan nan nan nan nan nan nan nan nan nan nan 6 nan 6 nan 8 6 7 13 15 nan 25 29 30 30 32 30 30 32 34 33 33 35 33 31 30 30 31 30 24 20 21 23 22 21 21 21 19 18
nan nan nan nan nan nan nan nan nan nan 11 8 9 4 5 15 10 17 18 16 nan 26 28 32 29 31 30 32 37 37 38 36 34 35 34 32 30 30 31 27 22 20 23 23 22 21 21 20 14
nan nan nan nan nan nan nan nan nan 17 12 11 9 7 5 12 14 10 12 19 23 24 28 32 31 32 35 38 39 36 39 39 37 36 36 35 32 31 30 30 25 23 23 23 23 22 19 18 16
nan nan nan nan nan nan nan nan nan nan 14 8 11 19 20 16 13 13 19 nan 25 25 29 38 35 39 39 37 37 36 38 37 37 36 35 36 35 33 30 28 29 25 23 23 22 23 20 17 16
nan nan nan nan nan nan nan nan nan nan 18 15 10 21 23 23 21 20 23 nan 25 28 34 36 37 38 39 38 36 38 40 39 37 38 36 35 36 34 31 29 28 28 25 24 23 22 21 19 16
nan nan nan nan nan nan nan nan nan 21 nan 19 12 16 27 24 21 21 25 nan 27 29 34 39 38 38 37 39 39 39 40 42 42 38 37 35 34 33 31 28 28 29 27 26 24 22 20 20 19
nan nan nan nan nan nan nan nan nan nan nan nan 18 15 30 26 22 23 26 27 30 33 32 37 40 42 39 39 40 41 43 46 45 44 40 36 34 33 31 27 27 26 30 27 25 24 22 21 19
nan nan nan nan nan nan nan nan nan nan nan nan nan 22 29 23 22 24 26 29 32 32 34 38 40 43 43 43 44 46 46 46 47 46 42 39 37 32 29 30 29 27 28 29 26 24 23 21 20
nan nan nan nan nan nan nan nan nan nan nan nan nan nan nan nan 22 24 27 31 34 35 38 40 43 45 46 48 50 50 49 46 45 46 43 44 37 37 36 29 39 29 27 27 26 25 24 23 22
nan nan nan nan nan nan nan nan nan nan nan nan nan nan nan nan nan 19 27 31 34 39 42 42 43 46 47 47 53 50 51 45 42 42 45 38 34 36 34 38 38 33 28 25 26 24 23 22 20
nan nan nan nan nan nan nan nan nan nan nan nan nan nan nan nan nan nan nan 28 38 42 44 48 46 48 48 49 53 48 47 41 39 39 41 41 42 32 33 37 35 30 28 28 30 28 25 23 24
nan nan nan nan nan nan nan nan nan nan nan nan nan nan nan nan nan nan nan nan 36 46 49 48 48 49 48 49 49 47 40 38 38 36 39 40 42 32 34 38 35 34 33 25 25 27 26 28 26
nan nan nan nan nan nan nan nan nan nan nan nan nan nan nan nan nan nan nan nan 42 48 51 51 48 48 46 44 42 39 39 38 36 37 39 40 40 35 38 40 38 36 32 29 30 32 35 31 26
nan nan nan nan nan nan nan nan nan nan nan nan nan nan nan nan nan nan nan nan 40 46 52 46 46 42 42 40 41 40 36 40 37 39 41 45 42 41 45 42 35 45 41 38 33 39 35 38 34
nan nan nan nan nan nan nan nan nan nan nan nan nan nan nan nan nan nan nan 38 39 38 43 45 47 44 43 40 41 39 38 40 42 44 50 56 53 50 41 nan 62 38 39 38 36 39 34 39 39
nan nan nan nan nan nan nan nan nan nan nan nan nan nan nan nan nan nan nan nan 28 36 43 47 46 44 39 41 37 36 38 36 40 45 56 54 41 nan nan nan nan 42 39 43 39 42 41 43 43
nan nan nan nan nan nan nan nan nan nan nan nan nan nan nan nan nan nan nan nan nan nan 48 47 45 44 40 40 37 29 31 35 39 36 45 39 36 nan nan nan nan 46 38 47 46 48 48 44 43
nan nan nan nan nan nan nan nan nan nan nan nan nan nan nan nan nan nan 36 33 nan nan 49 43 36 34 37 33 29 25 27 28 33 33 36 nan nan nan nan nan nan nan nan nan nan nan nan nan nan
nan nan nan nan nan nan nan nan nan nan nan nan nan nan nan nan nan nan 39 34 40 40 37 33 32 32 32 32 32 32 35 33 35 nan nan nan nan nan nan nan nan nan nan nan nan 55 nan 40 nan
nan nan nan nan nan nan nan nan nan nan nan nan nan nan nan nan nan nan nan 35 33 34 30 30 30 31 31 33 32 34 36 37 38 nan nan nan nan nan nan nan nan nan nan nan nan nan nan 26 nan
nan nan nan nan nan nan nan nan nan nan nan nan nan nan nan nan nan nan nan 32 32 31 29 29 31 32 29 32 33 37 40 42 43 43 nan nan nan nan nan nan nan nan nan nan nan nan nan nan nan
nan nan nan nan nan nan nan nan nan nan nan nan nan nan nan nan nan nan nan nan 34 32 31 32 33 34 28 34 40 43 42 45 46 nan nan nan nan nan nan nan nan nan nan nan nan nan nan nan nan
nan nan nan nan nan nan nan nan nan nan nan nan nan nan nan nan nan 36 38 40 nan nan 33 35 37 36 38 40 46 46 45 47 nan nan nan nan nan nan nan nan nan nan nan nan nan nan nan nan nan
nan nan nan nan nan nan nan nan nan nan nan nan nan nan nan nan nan 39 40 41 38 36 38 39 41 42 47 50 48 50 52 53 52 nan nan nan nan nan nan nan nan nan nan nan nan nan nan nan nan
nan nan nan nan nan nan nan nan nan nan nan nan nan nan nan nan nan 40 41 41 41 39 40 40 46 48 50 50 49 47 48 nan nan nan nan nan nan nan nan nan nan nan nan nan nan nan nan nan nan
nan nan nan nan nan nan nan nan nan nan nan nan nan nan nan nan nan nan nan 43 46 46 45 47 50 52 47 44 42 40 37 40 nan nan nan nan nan nan nan nan nan nan nan nan nan nan nan nan nan
nan nan nan nan nan nan nan nan nan nan nan nan nan nan nan nan nan nan nan nan nan 50 52 54 nan nan nan 44 34 37 41 nan nan nan nan nan nan nan nan nan nan nan nan nan nan nan nan nan nan
nan nan nan nan nan nan nan nan nan nan nan nan nan nan nan nan nan nan nan nan nan nan nan 52 nan nan nan nan 38 nan 42 nan nan 38 37 43 47 nan nan nan nan nan nan nan nan nan nan nan nan
nan nan nan nan nan nan nan nan nan nan nan nan nan nan nan nan nan nan nan nan nan nan nan 53 49 nan nan 45 38 40 nan nan 34 36 41 46 45 46 nan nan nan nan nan nan nan nan nan nan nan
nan nan nan nan nan nan nan nan nan nan nan nan nan nan nan nan nan nan nan nan nan nan nan nan nan nan 50 43 43 42 38 35 38 39 nan nan nan nan nan nan nan nan nan nan nan nan nan nan nan
Wind_Direction
nan nan nan nan nan nan nan nan nan nan nan 254 nan 190 nan 232 213 281 318 322 nan 333 333 340 335 335 333 336 336 333 331 332 333 333 331 327 324 320 319 323 324 320 317 320 321 320 319 321 318
nan nan nan nan nan nan nan nan nan nan 244 267 272 310 293 271 252 302 322 329 nan 322 327 337 332 334 333 334 332 331 330 328 330 331 330 326 322 317 315 317 318 315 314 315 316 318 320 319 321
nan nan nan nan nan nan nan nan nan 261 272 287 302 266 270 266 274 291 293 330 329 319 325 324 326 326 328 327 329 330 329 327 326 326 328 324 319 316 314 312 314 312 310 311 312 313 317 316 317
nan nan nan nan nan nan nan nan nan nan 272 247 235 288 288 265 288 286 311 nan 324 318 326 314 321 325 328 329 328 326 325 321 320 320 321 323 320 316 313 309 311 312 309 307 307 307 311 313 319
nan nan nan nan nan nan nan nan nan nan 264 255 247 272 275 266 282 293 311 nan 319 319 307 317 318 326 327 327 327 322 320 316 317 318 318 318 317 314 311 308 308 310 306 301 302 305 309 313 319
nan nan nan nan nan nan nan nan nan 257 nan 259 284 255 272 280 279 295 310 nan 311 315 313 315 320 324 327 324 324 321 317 316 315 313 313 313 312 309 305 303 304 304 301 297 300 302 304 307 313
nan nan nan nan nan nan nan nan nan nan nan nan 254 269 286 275 284 299 310 310 312 315 314 312 321 323 320 319 318 317 317 317 315 315 314 310 308 306 303 301 295 299 301 297 297 300 300 303 306
nan nan nan nan nan nan nan nan nan nan nan nan nan 270 281 277 289 297 306 313 315 312 312 313 315 315 316 314 313 316 317 316 314 314 310 305 301 300 297 298 290 287 290 295 295 295 297 299 300
nan nan nan nan nan nan nan nan nan nan nan nan nan nan nan nan 289 299 309 316 313 309 311 312 312 313 313 313 311 312 314 310 307 308 308 303 304 303 299 295 291 283 285 289 292 292 292 296 302
nan nan nan nan nan nan nan nan nan nan nan nan nan nan nan nan nan 298 309 314 314 315 314 310 309 309 310 309 306 312 313 311 308 307 305 300 301 296 290 283 286 284 281 282 285 289 291 293 294
nan nan nan nan nan nan nan nan nan nan nan nan nan nan nan nan nan nan nan 314 317 317 315 313 309 309 309 308 304 307 308 308 306 307 305 300 291 289 283 280 279 278 280 275 285 288 289 292 279
nan nan nan nan nan nan nan nan nan nan nan nan nan nan nan nan nan nan nan nan 308 312 314 310 309 305 306 303 305 307 304 306 298 302 301 290 291 292 284 273 270 270 270 273 280 279 286 287 283
nan nan nan nan nan nan nan nan nan nan nan nan nan nan nan nan nan nan nan nan 306 308 310 310 308 306 306 304 304 304 304 303 306 300 296 291 299 296 278 270 266 265 273 273 269 273 269 275 276
nan nan nan nan nan nan nan nan nan nan nan nan nan nan nan nan nan nan nan nan 302 302 304 309 305 307 307 308 301 301 309 299 295 289 278 274 277 274 262 252 261 236 249 256 260 262 273 281 274
nan nan nan nan nan nan nan nan nan nan nan nan nan nan nan nan nan nan nan 295 299 298 302 311 307 308 308 308 307 308 296 293 295 293 281 268 267 270 296 nan 228 248 261 263 260 267 270 272 277
nan nan nan nan nan nan nan nan nan nan nan nan nan nan nan nan nan nan nan nan 288 299 304 302 301 307 305 303 308 299 306 306 307 309 313 279 274 nan nan nan nan 247 249 269 259 259 259 267 265
nan nan nan nan nan nan nan nan nan nan nan nan nan nan nan nan nan nan nan nan nan nan 303 302 301 306 308 296 294 303 304 306 316 318 333 314 317 nan nan nan nan 253 271 271 262 264 264 268 264
nan nan nan nan nan nan nan nan nan nan nan nan nan nan nan nan nan nan 269 275 nan nan 295 296 297 295 286 289 296 302 313 316 319 318 315 nan nan nan nan nan nan nan nan nan nan nan nan nan nan
nan nan nan nan nan nan nan nan nan nan nan nan nan nan nan nan nan nan 275 272 278 279 291 293 285 287 290 294 304 308 308 311 316 nan nan nan nan nan nan nan nan nan nan nan nan 293 nan 289 nan
nan nan nan nan nan nan nan nan nan nan nan nan nan nan nan nan nan nan nan 283 277 279 282 287 285 287 291 298 301 303 307 311 307 nan nan nan nan nan nan nan nan nan nan nan nan nan nan 299 nan
nan nan nan nan nan nan nan nan nan nan nan nan nan nan nan nan nan nan nan 282 283 280 282 282 279 283 290 298 300 304 308 310 310 310 nan nan nan nan nan nan nan nan nan nan nan nan nan nan nan
nan nan nan nan nan nan nan nan nan nan nan nan nan nan nan nan nan nan nan nan 278 272 271 275 279 283 295 314 312 316 312 310 304 nan nan nan nan nan nan nan nan nan nan nan nan nan nan nan nan
nan nan nan nan nan nan nan nan nan nan nan nan nan nan nan nan nan 287 285 283 nan nan 285 284 286 293 308 316 316 315 308 308 nan nan nan nan nan nan nan nan nan nan nan nan nan nan nan nan nan
nan nan nan nan nan nan nan nan nan nan nan nan nan nan nan nan nan 284 285 282 277 278 281 286 297 305 310 313 315 311 312 304 298 nan nan nan nan nan nan nan nan nan nan nan nan nan nan nan nan
nan nan nan nan nan nan nan nan nan nan nan nan nan nan nan nan nan 289 285 277 277 276 281 295 312 313 312 311 312 310 301 nan nan nan nan nan nan nan nan nan nan nan nan nan nan nan nan nan nan
nan nan nan nan nan nan nan nan nan nan nan nan nan nan nan nan nan nan nan 276 278 280 288 302 308 309 313 315 306 300 300 300 nan nan nan nan nan nan nan nan nan nan nan nan nan nan nan nan nan
nan nan nan nan nan nan nan nan nan nan nan nan nan nan nan nan nan nan nan nan nan 285 291 298 nan nan nan 311 300 305 304 nan nan nan nan nan nan nan nan nan nan nan nan nan nan nan nan nan nan
nan nan nan nan nan nan nan nan nan nan nan nan nan nan nan nan nan nan nan nan nan nan nan 301 nan nan nan nan 305 nan 308 nan nan 310 301 298 306 nan nan nan nan nan nan nan nan nan nan nan nan
nan nan nan nan nan nan nan nan nan nan nan nan nan nan nan nan nan nan nan nan nan nan nan 305 307 nan nan 301 301 308 nan nan 306 299 296 301 309 314 nan nan nan nan nan nan nan nan nan nan nan
nan nan nan nan nan nan nan nan nan nan nan nan nan nan nan nan nan nan nan nan nan nan nan nan nan nan 310 296 297 302 304 304 302 300 nan nan nan nan nan nan nan nan nan nan nan nan nan nan nan